sat.trackr.live / text

‹ back to catalog

STARLINK-35709

NORAD 66216 · 2025-244L

PAYLOAD ACTIVE UNKNOWN

§ Identity

Operator
Country
US
Launch date
2025-10-28
Launch site
AFWTR
Launch vehicle
Mass (kg)
RCS (m²)

Purposes: comms

External: N2YO · Heavens-Above · Gunter

§ Orbital elements

Epoch: 2026-05-24T22:53:08.086848Z

Period
94.11 min
Inclination
53.1582°
Eccentricity
0.0000965
Mean motion
15.30200742 rev/d
Perigee alt
474.6 km
Apogee alt
475.9 km
Semi-major
6,853.3 km
B*
5.5562e-4
RAAN
235.8326°
Arg perigee
77.2257°
Mean anomaly
282.8851°
Rev number
3,333

§ Raw data

STARLINK-357091 66216U 25244L   26144.95356582  .00016133  00000+0  55562-3 0  99972 66216  53.1582 235.8326 0000965  77.2257 282.8851 15.30200742 33336

JSON: /api/v1/satellites/66216 · /tle

For live sub-satellite position, see the globe view (requires WebGL).

§ Visibility from observer

Set your observer location to see the next 7 days of passes ≥ 10°. The values pass through the URL so the page stays shareable.

No JS? Fill the form by hand. The geolocation button needs JavaScript.